This demonstration page uses our WeatherBlox Daily Observations layout. Learn more.

Hourly Observations for January 17, 2020

Temp ( °F °C ) Dew Point ( °F °C ) Humidity (%) Winds ( mph kmh ) Pressure ( in mb ) Visibility ( mi km ) Precip ( " mm )
12:15 am 00:15 Cloudy 20 -6.5 16 -9.1 82 82 SSE 12 19 30.5 1033 10 16.0934 0 0
12:35 am 00:35 Cloudy 20 -6.5 17 -8.6 85 85 SSE 14 22 30.49 1033 10 16.0934 0 0
12:55 am 00:55 Cloudy with Light Snow 21 -6.2 17 -8.1 87 87 SSE 13 20 30.49 1032 10 16.0934 0 0
1:15 am 01:15 Cloudy with Light Snow 21 -6.1 18 -7.6 89 89 SSE 16 26 30.47 1032 10 16.0934 0 0
1:35 am 01:35 Cloudy with Light Snow 21 -6 19 -7.1 92 92 SSE 15 24 30.46 1031 5 8.0467 0 0
1:55 am 01:55 Cloudy with Light Snow 21 -6 19 -7 93 93 SSE 14 22 30.43 1031 5 8.0467 0.01 0.254
2:15 am 02:15 Cloudy with Light Snow 21 -6 20 -6.7 95 95 SE 13 20 30.42 1030 5 8.0467 0 0
2:35 am 02:35 Cloudy with Light Snow 22 -5.7 20 -6.5 94 94 SE 15 24 30.41 1030 5 8.0467 0.01 0.254
2:55 am 02:55 Cloudy with Light Snow 22 -5.6 21 -6.2 96 96 SE 13 20 30.4 1029 3 4.82802 0.01 0.254
3:15 am 03:15 Cloudy with Light Snow 22 -5.4 21 -5.9 96 96 SSE 10 17 30.38 1029 3 4.82802 0.01 0.254
3:35 am 03:35 Cloudy with Light Snow 23 -5.2 22 -5.6 97 97 SE 15 24 30.37 1028 1.75 2.816345 0.03 0.762
3:55 am 03:55 Cloudy with Light Snow 23 -5.1 22 -5.5 97 97 SE 13 20 30.35 1028 2 3.21868 0.05 1.27
4:15 am 04:15 Cloudy with Light Snow 23 -5 22 -5.5 96 96 SE 14 22 30.31 1027 2.5 4.02335 0.01 0.254
4:35 am 04:35 Cloudy with Light Snow 23 -5 22 -5.5 96 96 SE 14 22 30.3 1026 1.5 2.41401 0.01 0.254
4:55 am 04:55 Cloudy with Light Snow 24 -4.7 23 -5.1 97 97 SE 16 26 30.28 1025 1.75 2.816345 0.02 0.508
5:15 am 05:15 Cloudy with Light Snow 24 -4.5 23 -5 96 96 SE 16 26 30.27 1025 2.5 4.02335 0 0
5:35 am 05:35 Cloudy with Light Snow 24 -4.3 23 -4.8 96 96 SE 18 30 30.24 1024 3 4.82802 0.01 0.254
5:55 am 05:55 Windy with Snow Likely 24 -4.2 24 -4.6 97 97 SE 22 35 30.23 1024 3 4.82802 0.01 0.254
6:15 am 06:15 Cloudy with Light Snow 25 -3.7 25 -4 98 98 SE 17 28 30.22 1023 7 11.26538 0 0
6:35 am 06:35 Windy with Snow Likely 26 -3.5 25 -3.7 99 99 SE 20 31 30.2 1023 7 11.26538 0 0
6:55 am 06:55 Cloudy 26 -3.4 26 -3.5 99 99 SE 21 33 30.17 1022 7 11.26538 0 0
7:15 am 07:15 Cloudy with Mist and Fog 27 -3 27 -3 100 100 SSE 21 33 30.16 1021 5 8.0467 0 0
7:35 am 07:35 Cloudy with Mist and Fog 27 -2.7 27 -2.7 100 100 SSE 20 31 30.17 1022 5 8.0467 0 0
7:55 am 07:55 Cloudy with Mist and Fog 28 -2.3 28 -2.3 100 100 SSE 18 30 30.16 1021 5 8.0467 0 0
8:15 am 08:15 Cloudy with Mist and Fog 28 -2.1 28 -2.1 100 100 SSE 21 33 30.14 1020 3 4.82802 0 0
8:35 am 08:35 Cloudy with Mist and Fog 28 -2.3 28 -2.3 100 100 SSE 20 31 30.14 1021 3 4.82802 0 0
8:55 am 08:55 Cloudy with Light Wintry Mix 28 -2.2 28 -2.2 100 100 SSE 20 31 30.13 1020 2.5 4.02335 0 0
9:15 am 09:15 Cloudy with Light Wintry Mix 28 -2.1 28 -2.1 100 100 SSE 18 30 30.1 1019 2 3.21868 0 0
9:35 am 09:35 Cloudy with Mist and Fog 28 -2 28 -2 100 100 SSE 16 26 30.08 1019 3 4.82802 0 0
9:55 am 09:55 Cloudy with Mist and Fog 28 -2 28 -2 100 100 SSE 16 26 30.08 1019 2 3.21868 0 0
10:15 am 10:15 Cloudy with Mist and Fog 29 -1.7 29 -1.7 100 100 SSE 16 26 30.07 1018 2 3.21868 0 0
10:35 am 10:35 Cloudy with Mist and Fog 29 -1.5 29 -1.5 100 100 SSE 14 22 30.05 1018 2 3.21868 0 0
10:55 am 10:55 Cloudy with Mist and Fog 30 -1.2 30 -1.2 100 100 SSE 18 30 30.02 1016 2 3.21868 0 0
11:15 am 11:15 Cloudy with Mist and Fog 31 -0.8 31 -0.8 100 100 S 17 28 30.01 1016 2 3.21868 0 0
11:35 am 11:35 Cloudy with Mist and Fog 31 -0.6 31 -0.6 100 100 S 17 28 30 1016 2 3.21868 0 0
11:55 am 11:55 Cloudy with Mist and Fog 31 -0.5 31 -0.5 100 100 S 18 30 29.98 1015 2 3.21868 0.01 0.254
12:15 pm 12:15 Cloudy with Mist and Fog 32 -0.2 32 -0.2 100 100 S 18 30 29.94 1014 2.5 4.02335 0 0
12:35 pm 12:35 Cloudy with Mist and Fog 32 0 32 -0.1 99 99 S 17 28 29.91 1013 2 3.21868 0 0
12:55 pm 12:55 Cloudy with Mist and Fog 32 0 32 -0.1 99 99 S 16 26 29.89 1012 2 3.21868 0 0
1:15 pm 13:15 Cloudy with Mist and Fog 32 0 32 0 100 100 S 16 26 29.88 1012 2 3.21868 0 0
1:35 pm 13:35 Cloudy with Mist and Fog 32 0 32 0 100 100 S 15 24 29.86 1011 2 3.21868 0 0
1:55 pm 13:55 Cloudy with Mist and Fog 32 0 32 0 100 100 S 14 22 29.85 1011 2.5 4.02335 0 0
2:15 pm 14:15 Cloudy with Mist and Fog 32 0 32 0 100 100 S 12 19 29.85 1011 2.5 4.02335 0 0
2:35 pm 14:35 Cloudy with Mist and Fog 32 0 32 0 100 100 S 13 20 29.83 1010 2 3.21868 0 0
2:55 pm 14:55 Cloudy with Mist and Fog 32 0 32 0 100 100 S 10 17 29.82 1010 2.5 4.02335 0 0
3:15 pm 15:15 Cloudy with Mist and Fog 32 0 32 0 100 100 S 10 17 29.82 1010 2.5 4.02335 0 0
3:35 pm 15:35 Cloudy with Mist and Fog 32 0.1 32 0.1 100 100 S 8 13 29.8 1009 2 3.21868 0 0
3:55 pm 15:55 Cloudy with Mist and Fog 32 0.1 32 0.1 100 100 S 8 13 29.8 1009 2 3.21868 0 0
4:15 pm 16:15 Cloudy with Mist and Fog 32 0.1 32 0.1 100 100 S 7 11 29.8 1009 2 3.21868 0 0
4:35 pm 16:35 Cloudy with Mist and Fog 32 0.1 32 0.1 100 100 SSW 7 11 29.81 1010 2 3.21868 0 0
4:55 pm 16:55 Cloudy with Mist and Fog 32 0.1 32 0.1 100 100 S 6 9 29.81 1010 2 3.21868 0 0
5:15 pm 17:15 Cloudy with Mist and Fog 32 0.1 32 0.1 100 100 S 5 7 29.81 1010 2.5 4.02335 0 0
5:35 pm 17:35 Cloudy with Mist and Fog 32 0.1 32 0.1 100 100 SSW 3 6 29.82 1010 3 4.82802 0 0
5:55 pm 17:55 Cloudy with Mist and Fog 32 0.2 32 0.2 100 100 S 3 6 29.83 1010 4 6.43736 0 0
6:15 pm 18:15 Cloudy with Mist and Fog 32 0.2 32 0.2 100 100 S 3 6 29.82 1010 5 8.0467 0 0
6:35 pm 18:35 Cloudy 32 0.2 32 0.2 100 100 Calm 29.83 1010 7 11.26538 0 0
6:55 pm 18:55 Cloudy 32 0.1 32 0.1 100 100 S 3 6 29.82 1010 10 16.0934 0 0
7:15 pm 19:15 Cloudy 32 0.1 32 0.1 100 100 S 5 7 29.82 1010 10 16.0934 0 0
7:35 pm 19:35 Cloudy 32 0.1 32 0.1 100 100 SSW 5 7 29.81 1010 10 16.0934 0 0
7:55 pm 19:55 Cloudy 32 0.2 32 0.2 100 100 SSW 5 7 29.81 1010 10 16.0934 0 0
8:15 pm 20:15 Cloudy 32 0.1 32 0.1 100 100 SSW 3 6 29.81 1010 7 11.26538 0 0
8:35 pm 20:35 Cloudy with Mist and Fog 32 0 32 0 100 100 SW 6 9 29.81 1010 2 3.21868 0 0
8:55 pm 20:55 Cloudy with Mist and Fog 32 0 32 0 100 100 WSW 5 7 29.83 1010 1.25 2.011675 0 0
9:15 pm 21:15 Cloudy with Mist and Fog 32 0.1 32 0.1 100 100 WSW 5 7 29.84 1011 1.75 2.816345 0 0
9:35 pm 21:35 Cloudy with Light Wintry Mix 32 0.1 32 0.1 100 100 WNW 3 6 29.87 1012 2 3.21868 0 0
9:55 pm 21:55 Cloudy with Light Snow 32 0.2 32 0.2 100 100 W 5 7 29.86 1011 2.5 4.02335 0.01 0.254
10:15 pm 22:15 Cloudy with Light Wintry Mix 33 0.3 33 0.3 100 100 W 5 7 29.86 1011 7 11.26538 0.01 0.254
10:35 pm 22:35 Cloudy with Light Wintry Mix 33 0.3 33 0.3 100 100 WNW 3 6 29.87 1012 7 11.26538 0.01 0.254
10:55 pm 22:55 Mostly Cloudy 33 0.6 33 0.6 100 100 NW 8 13 29.88 1012 10 16.0934 0.01 0.254
11:15 pm 23:15 Cloudy 34 1.2 34 1.2 100 100 NNW 16 26 29.9 1013 10 16.0934 0 0
11:35 pm 23:35 Mostly Cloudy 34 1.2 32 0.2 93 93 NW 9 15 29.93 1014 10 16.0934 0 0
11:55 pm 23:55 Cloudy 33 0.6 31 -0.5 92 92 NW 18 30 29.97 1015 10 16.0934 0 0

Powered by AerisWeather